SL-8 DEB, 39835

Orbit data source: Space-Track

SL-8 DEB, 39835 is space debris in LEO originally from a launch on Tue, 12 Feb 1991 UTC launched from the Plesetsk Missile And Space Complex (PKMTR). Debris objects in space refer to the collection of defunct objects orbiting the Earth. Examples of debris include non-operational satellites, rocket bodies, and fragments generated from explosions, collisions, or faulty payload assembly.

Loading next visibility...
Identifier
39835, 1991-009DT
Orbit
LEO
Country
Flag of CISCIS
Related business
Manufacturer
Unknown
Mission
Spacecraft
Bus & Motor
Unknown
Mass
Unknown
Launch date (UTC)
1991-02-12 (35 years ago)
Launch vehicle
Unknown
Launch site
Plesetsk Missile And Space Complex (PKMTR)
Object type
Payload
Rocket body
Debris
Shape & HBR
Unknown shape, 0.1 m
Radar Cross Section
Medium (>0.1 m² and <1 m²)

Expand to show TLE details & history
Last TLE update: 4 days ago

TLE from 4 days ago
0 SL-8 DEB
1 39835U 91009DT  26169.36441222  .00000271  00000-0  24875-2 0  9993
2 39835  74.0441 157.7947 0182849 228.9714 129.5394 12.24129852537986
Epoch: 2026-06-18T08:44Z
TLE epoch observation values (Epoch: 2026-06-18T08:44:45.215Z)
Latitude
0.00003°
Longitude
119.99751°
Altitude
1,671.091 km
Speed
6.997 km/s
True Right ascension
10h 31m 10s
True Declination
0° 00' 00"
Sunlit
Object was in daylight at epoch
Visualization orbit readout
Latitude
Unknown
Longitude
Unknown
Altitude
Unknown
Speed
Unknown
Apparent Right ascension
Unknown
Apparent Declination
Unknown
Sunlit
N/A
Visualization observer readout
Local Sidereal Time
02:30:11
Azimuth
Unknown
Elevation
Unknown
Doppler factor
Unknown
Orbital elements
Apogee altitude
1,717.843 km
Perigee altitude
1,427.091 km
Semi-major axis
7,950.604 km
Eccentricity
0.01828
Inclination
74.0441°
RAAN
157.7947°
Arg. of periapsis
228.9714°
True anomaly
131.13187°
Mean anomaly
129.5394°
Eccentric anomaly
130.33796°
Mean motion
3.06156 °/min
Orbital period
117.59 mins
BSTAR
0.0024875
Loading maneuver chart data...
Computing Atmospheric mass density...
Loading historical data...
Loading historical data...
Loading historical data...
Loading historical data...
Loading historical data...
Loading historical data...
Loading historical data...

Documentation

Showing up to 5 results
|